NKS218 KFLL-KMYR

Flight info

Callsign NKS218
Flight time 1h 19m
Altitude 33000
Route AGERS1 DUCEN Q87 JROSS
Aircraft MD82/M-SDFGIRWY/S

Departure

Time 2026-05-03 22:20
Airport Fort Lauderdale Hollywood International Airport (KFLL)

Arrival

Time 2026-05-03 23:39
Airport Myrtle Beach International Airport (KMYR)
Time Latitude Longitude Altitude Speed Heading
2026-05-03 21:04 26.07034 -80.14580 16 ft 0 kts 21°
2026-05-03 21:36 26.07033 -80.14581 16 ft 2 kts 21°
2026-05-03 21:36 26.07010 -80.14591 20 ft 3 kts 28°
2026-05-03 21:37 26.06992 -80.14606 19 ft 4 kts 63°
2026-05-03 21:37 26.06988 -80.14632 20 ft 4 kts 97°
2026-05-03 21:37 26.06993 -80.14662 18 ft 3 kts 97°
2026-05-03 21:38 26.06993 -80.14661 18 ft 2 kts 98°
2026-05-03 21:38 26.06993 -80.14603 16 ft 7 kts 59°
2026-05-03 21:38 26.07018 -80.14588 16 ft 0 kts 21°
2026-05-03 21:39 26.06983 -80.14598 20 ft 1 kts 352°
2026-05-03 21:40 26.06993 -80.14653 17 ft 11 kts 269°
2026-05-03 21:40 26.06993 -80.14661 18 ft 0 kts 269°
2026-05-03 21:45 26.06993 -80.14666 17 ft 1 kts 269°
2026-05-03 21:46 26.06993 -80.14670 17 ft 0 kts 269°
2026-05-03 21:56 26.06993 -80.14673 16 ft 2 kts 268°
2026-05-03 21:56 26.06965 -80.14738 17 ft 14 kts 237°
2026-05-03 21:57 26.06914 -80.14816 16 ft 8 kts 249°
2026-05-03 21:57 26.06910 -80.14885 16 ft 9 kts 271°
2026-05-03 21:57 26.06911 -80.14975 16 ft 17 kts 271°
2026-05-03 21:57 26.06903 -80.15101 16 ft 15 kts 239°
2026-05-03 21:58 26.06808 -80.15131 16 ft 15 kts 179°
2026-05-03 21:58 26.06714 -80.15140 20 ft 11 kts 213°
2026-05-03 21:58 26.06696 -80.15264 18 ft 24 kts 271°
2026-05-03 21:58 26.06697 -80.15454 17 ft 24 kts 271°
2026-05-03 21:59 26.06697 -80.15535 17 ft 0 kts 270°
2026-05-03 22:06 26.06697 -80.15570 17 ft 7 kts 269°
2026-05-03 22:06 26.06697 -80.15614 17 ft 0 kts 270°
2026-05-03 22:09 26.06697 -80.15625 17 ft 7 kts 270°
2026-05-03 22:09 26.06697 -80.15684 17 ft 7 kts 270°
2026-05-03 22:10 26.06697 -80.15693 17 ft 0 kts 269°
2026-05-03 22:14 26.06697 -80.15701 17 ft 3 kts 270°
2026-05-03 22:14 26.06697 -80.15716 17 ft 0 kts 270°
2026-05-03 22:15 26.06697 -80.15742 17 ft 0 kts 270°
2026-05-03 22:16 26.06697 -80.15749 16 ft 4 kts 270°
2026-05-03 22:16 26.06692 -80.15803 16 ft 3 kts 231°
2026-05-03 22:16 26.06690 -80.15806 17 ft 0 kts 224°
2026-05-03 22:18 26.06687 -80.15808 17 ft 4 kts 218°
2026-05-03 22:18 26.06612 -80.15809 18 ft 13 kts 149°
2026-05-03 22:18 26.06588 -80.15715 21 ft 17 kts 91°
2026-05-03 22:19 26.06588 -80.15495 23 ft 47 kts 89°
2026-05-03 22:19 26.06583 -80.14925 19 ft 102 kts 90°
2026-05-03 22:19 26.06578 -80.13958 78 ft 151 kts 91°
2026-05-03 22:19 26.06535 -80.12675 478 ft 164 kts 89°
2026-05-03 22:20 26.06617 -80.11415 1239 ft 170 kts 78°
2026-05-03 22:20 26.06981 -80.10094 1881 ft 189 kts 68°
2026-05-03 22:20 26.07613 -80.08780 2688 ft 195 kts 54°
2026-05-03 22:20 26.08464 -80.07563 3230 ft 206 kts 45°
2026-05-03 22:21 26.09650 -80.06598 3558 ft 220 kts 20°
2026-05-03 22:21 26.11116 -80.06087 4156 ft 219 kts 13°
2026-05-03 22:21 26.12590 -80.05619 4749 ft 227 kts 13°
2026-05-03 22:21 26.14188 -80.05009 4913 ft 258 kts 21°
2026-05-03 22:22 26.15908 -80.04168 5139 ft 279 kts 15°
2026-05-03 22:22 26.17829 -80.03839 5549 ft 280 kts 348°
2026-05-03 22:22 26.19037 -80.04252 5970 ft 273 kts 327°
2026-05-03 22:22 26.20404 -80.05654 6553 ft 266 kts 303°
2026-05-03 22:23 26.21399 -80.07302 7516 ft 248 kts 300°
2026-05-03 22:23 26.22332 -80.08921 8097 ft 253 kts 300°
2026-05-03 22:23 26.23292 -80.10655 8246 ft 272 kts 297°
2026-05-03 22:23 26.24193 -80.12542 8652 ft 277 kts 293°
2026-05-03 22:24 26.25000 -80.14467 9463 ft 270 kts 291°
2026-05-03 22:24 26.25741 -80.16357 10320 ft 264 kts 289°
2026-05-03 22:24 26.26581 -80.18196 10853 ft 275 kts 302°
2026-05-03 22:24 26.28008 -80.19755 11068 ft 303 kts 324°
2026-05-03 22:25 26.30060 -80.20641 11301 ft 332 kts 345°
2026-05-03 22:25 26.32396 -80.20896 12007 ft 337 kts 352°
2026-05-03 22:25 26.34714 -80.21039 12801 ft 331 kts 352°
2026-05-03 22:25 26.37001 -80.21344 13198 ft 333 kts 340°
2026-05-03 22:26 26.39228 -80.22174 13383 ft 341 kts 333°
2026-05-03 22:26 26.41493 -80.23027 13841 ft 349 kts 341°
2026-05-03 22:26 26.43932 -80.23544 13989 ft 366 kts 347°
2026-05-03 22:26 26.46512 -80.23856 14382 ft 371 kts 349°
2026-05-03 22:27 26.48968 -80.24071 15787 ft 342 kts 349°
2026-05-03 22:27 26.51297 -80.24256 16702 ft 332 kts 349°
2026-05-03 22:27 26.53609 -80.24447 17156 ft 336 kts 348°
2026-05-03 22:27 26.55972 -80.24662 17329 ft 348 kts 348°
2026-05-03 22:28 26.58422 -80.24973 17423 ft 360 kts 346°
2026-05-03 22:28 26.60942 -80.25385 17536 ft 373 kts 345°
2026-05-03 22:28 26.63553 -80.25848 17679 ft 386 kts 345°
2026-05-03 22:28 26.66231 -80.26326 18074 ft 391 kts 345°
2026-05-03 22:29 26.68938 -80.26798 18507 ft 395 kts 345°
2026-05-03 22:29 26.71626 -80.27394 18920 ft 392 kts 336°
2026-05-03 22:29 26.74195 -80.28376 19327 ft 390 kts 332°
2026-05-03 22:29 26.76735 -80.29484 19753 ft 392 kts 331°
2026-05-03 22:30 26.79276 -80.30612 20184 ft 395 kts 331°
2026-05-03 22:30 26.81842 -80.31744 20580 ft 397 kts 331°
2026-05-03 22:30 26.84424 -80.32870 20950 ft 400 kts 332°
2026-05-03 22:30 26.87036 -80.33989 21322 ft 403 kts 332°
2026-05-03 22:31 26.89671 -80.35100 21735 ft 406 kts 332°
2026-05-03 22:31 26.92328 -80.36208 22142 ft 409 kts 332°
2026-05-03 22:31 26.95002 -80.37317 22523 ft 412 kts 332°
2026-05-03 22:31 26.97705 -80.38414 22880 ft 414 kts 333°
2026-05-03 22:32 27.00432 -80.39502 23231 ft 417 kts 333°
2026-05-03 22:32 27.03178 -80.40592 23599 ft 420 kts 333°
2026-05-03 22:32 27.05902 -80.41676 23919 ft 422 kts 332°
2026-05-03 22:32 27.08699 -80.42793 24257 ft 423 kts 332°
2026-05-03 22:33 27.11471 -80.43942 24572 ft 423 kts 331°
2026-05-03 22:33 27.14211 -80.45140 24892 ft 424 kts 330°
2026-05-03 22:33 27.16953 -80.46369 25201 ft 425 kts 330°
2026-05-03 22:33 27.19665 -80.47590 25531 ft 426 kts 330°
2026-05-03 22:34 27.22460 -80.48845 25853 ft 428 kts 330°
2026-05-03 22:34 27.25230 -80.50081 26156 ft 429 kts 330°
2026-05-03 22:34 27.28014 -80.51316 26457 ft 431 kts 330°
2026-05-03 22:34 27.30773 -80.52536 26763 ft 432 kts 330°
2026-05-03 22:35 27.33617 -80.53791 27046 ft 434 kts 330°
2026-05-03 22:35 27.36436 -80.55034 27328 ft 436 kts 330°
2026-05-03 22:35 27.39284 -80.56230 27660 ft 439 kts 332°
2026-05-03 22:35 27.42177 -80.57382 27935 ft 442 kts 333°
2026-05-03 22:36 27.45048 -80.58500 28235 ft 443 kts 333°
2026-05-03 22:36 27.47971 -80.59632 28490 ft 445 kts 333°
2026-05-03 22:36 27.50899 -80.60775 28738 ft 446 kts 333°
2026-05-03 22:36 27.53841 -80.61933 28986 ft 448 kts 333°
2026-05-03 22:37 27.56784 -80.63099 29219 ft 450 kts 332°
2026-05-03 22:37 27.59740 -80.64277 29476 ft 451 kts 332°
2026-05-03 22:37 27.62705 -80.65463 29707 ft 453 kts 332°
2026-05-03 22:37 27.65680 -80.66653 29949 ft 455 kts 332°
2026-05-03 22:38 27.68670 -80.67849 30151 ft 457 kts 332°
2026-05-03 22:38 27.71671 -80.69047 30361 ft 458 kts 332°
2026-05-03 22:38 27.74681 -80.70248 30552 ft 459 kts 332°
2026-05-03 22:38 27.77700 -80.71454 30720 ft 461 kts 332°
2026-05-03 22:39 27.80727 -80.72665 30898 ft 462 kts 332°
2026-05-03 22:39 27.83742 -80.73874 31072 ft 463 kts 332°
2026-05-03 22:39 27.86803 -80.75102 31232 ft 465 kts 332°
2026-05-03 22:39 27.89855 -80.76327 31425 ft 466 kts 332°
2026-05-03 22:40 27.92917 -80.77554 31578 ft 467 kts 332°
2026-05-03 22:40 27.95986 -80.78784 31761 ft 468 kts 332°
2026-05-03 22:40 27.99079 -80.80030 31637 ft 476 kts 332°
2026-05-03 22:41 28.05231 -80.82490 32155 ft 457 kts 331°
2026-05-03 22:41 28.08233 -80.83684 32315 ft 459 kts 331°
2026-05-03 22:41 28.11257 -80.84907 32260 ft 463 kts 331°
2026-05-03 22:42 28.16984 -80.87230 32204 ft 462 kts 331°
2026-05-03 22:42 28.23026 -80.89673 32151 ft 460 kts 331°
2026-05-03 22:43 28.29053 -80.92108 32129 ft 460 kts 331°
2026-05-03 22:43 28.35083 -80.94547 32095 ft 461 kts 331°
2026-05-03 22:44 28.41132 -80.96993 32094 ft 462 kts 331°
2026-05-03 22:44 28.47188 -80.99445 32091 ft 462 kts 331°
2026-05-03 22:45 28.53257 -81.01903 32090 ft 463 kts 331°
2026-05-03 22:45 28.59318 -81.04367 32091 ft 463 kts 331°
2026-05-03 22:46 28.65383 -81.06838 32086 ft 463 kts 331°
2026-05-03 22:46 28.71455 -81.09310 32085 ft 463 kts 331°
2026-05-03 22:47 28.77490 -81.11767 32086 ft 464 kts 331°
2026-05-03 22:47 28.83298 -81.14136 32083 ft 464 kts 331°
2026-05-03 22:48 28.89372 -81.16615 32087 ft 463 kts 331°
2026-05-03 22:48 28.95439 -81.19094 32111 ft 463 kts 331°
2026-05-03 22:49 29.01497 -81.21565 32264 ft 460 kts 331°
2026-05-03 22:49 29.04514 -81.22797 32381 ft 461 kts 330°
2026-05-03 22:49 29.07532 -81.24034 32509 ft 461 kts 330°
2026-05-03 22:49 29.10553 -81.25275 32643 ft 461 kts 330°
2026-05-03 22:50 29.13570 -81.26516 32762 ft 461 kts 330°
2026-05-03 22:50 29.16592 -81.27758 32888 ft 461 kts 330°
2026-05-03 22:50 29.19606 -81.28997 33010 ft 461 kts 330°
2026-05-03 22:51 29.25645 -81.31484 33093 ft 462 kts 330°
2026-05-03 22:51 29.31744 -81.33862 33108 ft 463 kts 332°
2026-05-03 22:52 29.37884 -81.36125 33119 ft 464 kts 332°
2026-05-03 22:52 29.44031 -81.38376 33126 ft 464 kts 331°
2026-05-03 22:53 29.50192 -81.40621 33128 ft 465 kts 331°
2026-05-03 22:53 29.56099 -81.42761 33129 ft 465 kts 331°
2026-05-03 22:54 29.62275 -81.44988 33135 ft 466 kts 331°
2026-05-03 22:54 29.68464 -81.47206 33132 ft 466 kts 331°
2026-05-03 22:55 29.74663 -81.49416 33132 ft 467 kts 330°
2026-05-03 22:55 29.80867 -81.51616 33129 ft 467 kts 331°
2026-05-03 22:56 29.87114 -81.53736 33130 ft 477 kts 338°
2026-05-03 22:56 29.90511 -81.53959 33143 ft 503 kts 355°
2026-05-03 22:56 29.94010 -81.53104 33157 ft 527 kts 12°
2026-05-03 22:56 29.97350 -81.51219 33172 ft 545 kts 28°
2026-05-03 22:57 30.00305 -81.48414 33166 ft 557 kts 44°
2026-05-03 22:57 30.05705 -81.42044 33147 ft 549 kts 28°
2026-05-03 22:58 30.12332 -81.37997 33139 ft 528 kts
2026-05-03 22:58 30.15805 -81.37203 33143 ft 505 kts 351°
2026-05-03 22:58 30.19251 -81.37291 33145 ft 490 kts 343°
2026-05-03 22:59 30.25786 -81.38026 33130 ft 490 kts 342°
2026-05-03 22:59 30.32555 -81.38634 33121 ft 493 kts 344°
2026-05-03 23:00 30.39416 -81.39051 33121 ft 495 kts 345°
2026-05-03 23:00 30.46323 -81.39419 32831 ft 499 kts 345°
2026-05-03 23:00 30.49791 -81.39603 32587 ft 499 kts 345°
2026-05-03 23:01 30.53248 -81.39772 32357 ft 496 kts 345°
2026-05-03 23:01 30.56689 -81.39938 32113 ft 494 kts 345°
2026-05-03 23:01 30.60117 -81.40108 31876 ft 493 kts 345°
2026-05-03 23:01 30.63547 -81.40286 31641 ft 493 kts 345°
2026-05-03 23:02 30.66967 -81.40467 31412 ft 492 kts 345°
2026-05-03 23:02 30.70385 -81.40650 31261 ft 491 kts 344°
2026-05-03 23:02 30.73793 -81.40833 31199 ft 490 kts 345°
2026-05-03 23:03 30.80618 -81.41197 31155 ft 492 kts 345°
2026-05-03 23:03 30.87476 -81.41566 31145 ft 494 kts 345°
2026-05-03 23:04 30.94360 -81.41928 31131 ft 496 kts 345°
2026-05-03 23:04 31.01252 -81.42290 31129 ft 496 kts 345°
2026-05-03 23:05 31.08147 -81.42654 31127 ft 496 kts 345°
2026-05-03 23:05 31.15043 -81.43022 31131 ft 496 kts 345°
2026-05-03 23:06 31.21940 -81.43390 31138 ft 496 kts 346°
2026-05-03 23:06 31.25445 -81.43178 31136 ft 518 kts
2026-05-03 23:06 31.28960 -81.41919 31153 ft 538 kts 15°
2026-05-03 23:07 31.35766 -81.38036 31142 ft 546 kts 19°
2026-05-03 23:07 31.42559 -81.34090 31135 ft 544 kts 17°
2026-05-03 23:08 31.48245 -81.30962 31129 ft 542 kts 16°
2026-05-03 23:08 31.55108 -81.27285 31127 ft 542 kts 16°
2026-05-03 23:09 31.61970 -81.23589 31123 ft 543 kts 16°
2026-05-03 23:09 31.68534 -81.20014 31116 ft 543 kts 16°
2026-05-03 23:10 31.75355 -81.16269 31101 ft 542 kts 17°
2026-05-03 23:10 31.82191 -81.12523 31095 ft 542 kts 17°
2026-05-03 23:11 31.89029 -81.08782 31084 ft 542 kts 16°
2026-05-03 23:11 31.95862 -81.05039 31087 ft 541 kts 17°
2026-05-03 23:12 32.02674 -81.01286 31089 ft 540 kts 17°
2026-05-03 23:12 32.09460 -80.97482 31093 ft 539 kts 17°
2026-05-03 23:13 32.16224 -80.93680 31130 ft 538 kts 17°
2026-05-03 23:13 32.22988 -80.89888 31134 ft 537 kts 17°
2026-05-03 23:14 32.29733 -80.86106 31134 ft 536 kts 17°
2026-05-03 23:14 32.36474 -80.82318 31123 ft 536 kts 17°
2026-05-03 23:15 32.43201 -80.78526 31124 ft 535 kts 18°
2026-05-03 23:15 32.49924 -80.74725 31123 ft 535 kts 17°
2026-05-03 23:16 32.56638 -80.70929 31122 ft 535 kts 18°
2026-05-03 23:16 32.63355 -80.67130 31121 ft 535 kts 18°
2026-05-03 23:17 32.70031 -80.63077 30461 ft 556 kts 30°
2026-05-03 23:17 32.72962 -80.60027 29710 ft 563 kts 46°
2026-05-03 23:17 32.75301 -80.56304 28931 ft 561 kts 55°
2026-05-03 23:17 32.77372 -80.52401 28154 ft 556 kts 56°
2026-05-03 23:18 32.79417 -80.48520 27389 ft 551 kts 56°
2026-05-03 23:18 32.81492 -80.44710 26641 ft 546 kts 54°
2026-05-03 23:18 32.83600 -80.40977 25913 ft 541 kts 53°
2026-05-03 23:18 32.85725 -80.37313 25193 ft 536 kts 52°
2026-05-03 23:19 32.87851 -80.33693 24497 ft 531 kts 52°
2026-05-03 23:19 32.89934 -80.30154 23832 ft 527 kts 52°
2026-05-03 23:19 32.92022 -80.26595 23054 ft 522 kts 52°
2026-05-03 23:19 32.94111 -80.23015 22262 ft 517 kts 52°
2026-05-03 23:20 32.96143 -80.19514 21497 ft 512 kts 53°
2026-05-03 23:20 32.98119 -80.16079 20760 ft 507 kts 53°
2026-05-03 23:20 33.00097 -80.12629 20061 ft 502 kts 53°
2026-05-03 23:20 33.02052 -80.09213 19351 ft 496 kts 53°
2026-05-03 23:21 33.03989 -80.05836 18649 ft 491 kts 53°
2026-05-03 23:21 33.05902 -80.02501 18006 ft 483 kts 53°
2026-05-03 23:21 33.07782 -79.99228 17489 ft 473 kts 53°
2026-05-03 23:21 33.09619 -79.96031 16969 ft 463 kts 53°
2026-05-03 23:22 33.13195 -79.89804 15961 ft 447 kts 54°
2026-05-03 23:22 33.14935 -79.86771 15464 ft 440 kts 54°
2026-05-03 23:22 33.16651 -79.83780 14985 ft 434 kts 54°
2026-05-03 23:23 33.18342 -79.80830 14511 ft 428 kts 54°
2026-05-03 23:23 33.20008 -79.77915 14038 ft 422 kts 54°
2026-05-03 23:23 33.21646 -79.75031 13530 ft 417 kts 54°
2026-05-03 23:23 33.23262 -79.72179 13011 ft 412 kts 54°
2026-05-03 23:24 33.24856 -79.69367 12505 ft 407 kts 54°
2026-05-03 23:24 33.26298 -79.66820 11967 ft 402 kts 53°
2026-05-03 23:24 33.27837 -79.64081 11661 ft 390 kts 53°
2026-05-03 23:24 33.29319 -79.61456 11539 ft 373 kts 53°
2026-05-03 23:25 33.30749 -79.58937 11394 ft 358 kts 53°
2026-05-03 23:25 33.32123 -79.56523 11275 ft 345 kts 53°
2026-05-03 23:25 33.33449 -79.54198 11139 ft 332 kts 52°
2026-05-03 23:25 33.34724 -79.51956 11047 ft 319 kts 52°
2026-05-03 23:26 33.35949 -79.49799 10984 ft 310 kts 52°
2026-05-03 23:26 33.37174 -79.47650 10471 ft 316 kts 52°
2026-05-03 23:26 33.38421 -79.45468 9867 ft 320 kts 52°
2026-05-03 23:26 33.39674 -79.43268 9341 ft 319 kts 52°
2026-05-03 23:27 33.40919 -79.41078 8847 ft 318 kts 53°
2026-05-03 23:27 33.42160 -79.38895 8342 ft 316 kts 53°
2026-05-03 23:27 33.43390 -79.36716 7833 ft 315 kts 53°
2026-05-03 23:27 33.44610 -79.34542 7418 ft 312 kts 53°
2026-05-03 23:28 33.45806 -79.32402 7055 ft 307 kts 53°
2026-05-03 23:28 33.46988 -79.30290 6695 ft 303 kts 53°
2026-05-03 23:28 33.48152 -79.28215 6309 ft 298 kts 53°
2026-05-03 23:28 33.49304 -79.26166 5921 ft 295 kts 54°
2026-05-03 23:29 33.50442 -79.24135 5556 ft 292 kts 54°
2026-05-03 23:29 33.51565 -79.22123 5229 ft 288 kts 54°
2026-05-03 23:29 33.52672 -79.20162 4980 ft 281 kts 54°
2026-05-03 23:29 33.53743 -79.18265 4716 ft 276 kts 54°
2026-05-03 23:30 33.54804 -79.16370 4463 ft 271 kts 54°
2026-05-03 23:30 33.55846 -79.14503 4204 ft 267 kts 54°
2026-05-03 23:30 33.56865 -79.12680 3968 ft 259 kts 54°
2026-05-03 23:30 33.57853 -79.10918 3721 ft 251 kts 54°
2026-05-03 23:31 33.58813 -79.09199 3455 ft 245 kts 54°
2026-05-03 23:31 33.59757 -79.07518 3204 ft 240 kts 54°
2026-05-03 23:31 33.60680 -79.05878 3089 ft 233 kts 54°
2026-05-03 23:31 33.61577 -79.04313 3044 ft 223 kts 49°
2026-05-03 23:32 33.62685 -79.03111 3045 ft 208 kts 27°
2026-05-03 23:32 33.64001 -79.02559 2997 ft 197 kts
2026-05-03 23:32 33.65347 -79.02530 3016 ft 193 kts 354°
2026-05-03 23:32 33.66681 -79.02621 3014 ft 192 kts 352°
2026-05-03 23:33 33.68013 -79.02741 3019 ft 192 kts 352°
2026-05-03 23:33 33.69335 -79.02879 3036 ft 189 kts 352°
2026-05-03 23:33 33.70651 -79.03025 3048 ft 191 kts 352°
2026-05-03 23:33 33.71978 -79.03182 3052 ft 193 kts 351°
2026-05-03 23:34 33.73309 -79.03344 3028 ft 194 kts 351°
2026-05-03 23:34 33.74651 -79.03544 2878 ft 195 kts 351°
2026-05-03 23:34 33.76000 -79.03606 2678 ft 193 kts 360°
2026-05-03 23:34 33.77323 -79.03351 2353 ft 189 kts 17°
2026-05-03 23:35 33.78438 -79.02670 2111 ft 176 kts 34°
2026-05-03 23:35 33.79230 -79.01683 2029 ft 159 kts 62°
2026-05-03 23:35 33.79522 -79.00428 1870 ft 156 kts 91°
2026-05-03 23:35 33.79365 -78.99161 1744 ft 153 kts 109°
2026-05-03 23:36 33.78942 -78.97994 1694 ft 151 kts 124°
2026-05-03 23:36 33.78383 -78.96930 1737 ft 149 kts 124°
2026-05-03 23:36 33.77807 -78.95867 1778 ft 151 kts 131°
2026-05-03 23:36 33.77023 -78.95165 2025 ft 141 kts 162°
2026-05-03 23:37 33.76059 -78.94837 2357 ft 149 kts 172°
2026-05-03 23:37 33.74996 -78.94568 2292 ft 157 kts 171°
2026-05-03 23:37 33.73954 -78.94295 1882 ft 151 kts 171°
2026-05-03 23:37 33.72930 -78.94075 1378 ft 150 kts 171°
2026-05-03 23:38 33.71901 -78.93822 801 ft 151 kts 170°
2026-05-03 23:38 33.70910 -78.93559 414 ft 140 kts 172°
2026-05-03 23:38 33.69993 -78.93334 197 ft 134 kts 172°
2026-05-03 23:38 33.69097 -78.93109 47 ft 124 kts 171°
2026-05-03 23:39 33.68351 -78.92926 32 ft 89 kts 168°
2026-05-03 23:39 33.67903 -78.92815 33 ft 45 kts 168°
2026-05-03 23:39 33.67696 -78.92755 32 ft 24 kts 158°
2026-05-03 23:39 33.67560 -78.92661 32 ft 22 kts 139°
2026-05-03 23:40 33.67487 -78.92547 32 ft 14 kts 75°
2026-05-03 23:40 33.67591 -78.92535 33 ft 24 kts 349°
2026-05-03 23:40 33.67765 -78.92576 33 ft 26 kts 348°
2026-05-03 23:40 33.67942 -78.92620 33 ft 26 kts 349°
2026-05-03 23:41 33.68084 -78.92653 33 ft 14 kts 348°
2026-05-03 23:41 33.68162 -78.92639 33 ft 10 kts 51°
2026-05-03 23:41 33.68194 -78.92550 33 ft 14 kts 50°
2026-05-03 23:41 33.68267 -78.92554 33 ft 12 kts 344°
2026-05-03 23:42 33.68358 -78.92545 33 ft 14 kts 22°
2026-05-03 23:42 33.68366 -78.92495 33 ft 6 kts 130°
2026-05-03 23:42 33.68336 -78.92444 33 ft 2 kts 121°
2026-05-03 23:42 33.68334 -78.92438 33 ft 3 kts 121°
2026-05-03 23:43 33.68332 -78.92435 33 ft 0 kts 121°